Weather History for Kahului, HI

Change the Weather History Date:

Friday, November 23, 2012

  Actual Average Record
Temperature  
Mean Temperature 75 °F 75 °F  
Max Temperature 83 °F 83 °F 89 °F (1977)
Min Temperature 66 °F 68 °F 58 °F (1953)
Degree Days  
Heating Degree Days 0 0  
Month to date heating degree days 0 0  
Since 1 July heating degree days 0 0  
Cooling Degree Days 10 10  
Month to date cooling degree days 248 261  
Year to date cooling degree days 3590 3637  
Growing Degree Days 24 (Base 50)    
Moisture  
Dew Point 68 °F    
Average Humidity 79    
Maximum Humidity 93    
Minimum Humidity 65    
Precipitation  
Precipitation T in 0.08 in 1.66 in (1990)
Month to date precipitation 0.18 1.54  
Year to date precipitation 4.89 13.82  
Snow  
Snow 0.00 in - - ()
Month to date snowfall 0.0  
Since 1 July snowfall 0.0  
Since 1 September snowfall 0.0  
Snow Depth 0.00 in    
Sea Level Pressure  
Sea Level Pressure 29.97 in    
Wind  
Wind Speed 7 mph (NE)    
Max Wind Speed 15 mph    
Max Gust Speed 22 mph    
Visibility 10 miles    
Events      
T = Trace of Precipitation, MM = Missing Value Source: NWS Daily Summary

Daily Weather History Graph

Daily Weather History Graph

Search for Another Location

Airport:

Trip Planner

Search our weather history database for the weather conditions in past years. The results will help you decide how hot, cold, wet, or windy it might be!

Date:

Astronomy

Nov. 23, 2012 Rise Set
Actual Time 6:41 AM HST 5:43 PM HST
Civil Twilight 6:17 AM HST 6:06 PM HST
Nautical Twilight 5:50 AM HST 6:34 PM HST
Astronomical Twilight 5:23 AM HST 7:00 PM HST
Moon 2:39 PM HST (11/23) 2:38 AM HST (11/23)
Length of Visible Light 11h 49m
Length of Day
11h 01m
Waxing Gibbous, 81% of the Moon is Illuminated
Nov 23
Waxing Gibbous
Nov 28
Full
Dec 6
Last Quarter
Dec 12
New
Dec 19
First Quarter

Hourly Weather History & Observations

Time (HST) Temp. Heat Index Dew Point Humidity Pressure Visibility Wind Dir Wind Speed Gust Speed Precip Events Conditions
12:54 AM 70.0 °F - 64.0 °F 81% 29.98 in 10.0 mi Calm Calm - N/A   Clear
1:54 AM 66.9 °F - 64.0 °F 90% 29.96 in 10.0 mi ESE 3.5 mph - N/A   Clear
2:54 AM 66.9 °F - 64.0 °F 90% 29.96 in 10.0 mi SE 4.6 mph - N/A   Clear
3:38 AM 66.2 °F - 64.4 °F 94% 29.94 in 10.0 mi Calm Calm - N/A   Mostly Cloudy
3:54 AM 66.9 °F - 64.0 °F 90% 29.96 in 10.0 mi Calm Calm - N/A   Overcast
4:54 AM 70.0 °F - 66.9 °F 90% 29.96 in 10.0 mi East 4.6 mph - N/A   Mostly Cloudy
5:09 AM 69.8 °F - 66.2 °F 88% 29.94 in 10.0 mi East 3.5 mph - N/A   Mostly Cloudy
5:25 AM 68.0 °F - 64.4 °F 88% 29.95 in 10.0 mi SE 4.6 mph - N/A   Scattered Clouds
5:54 AM 66.9 °F - 64.9 °F 93% 29.96 in 10.0 mi ESE 3.5 mph - N/A   Partly Cloudy
6:54 AM 69.1 °F - 66.0 °F 90% 29.98 in 10.0 mi Calm Calm - N/A   Clear
7:54 AM 75.0 °F - 69.1 °F 82% 29.99 in 10.0 mi Calm Calm - N/A   Clear
8:54 AM 78.1 °F - 69.1 °F 74% 30.00 in 10.0 mi North 8.1 mph - N/A   Partly Cloudy
9:54 AM 81.0 °F 84.1 °F 69.1 °F 67% 30.00 in 10.0 mi North 10.4 mph - N/A   Partly Cloudy
10:54 AM 81.0 °F 84.4 °F 70.0 °F 69% 29.99 in 10.0 mi North 12.7 mph - N/A   Scattered Clouds
11:54 AM 82.0 °F 85.9 °F 70.0 °F 67% 29.97 in 10.0 mi North 12.7 mph - N/A   Scattered Clouds
12:54 PM 82.0 °F 85.5 °F 69.1 °F 65% 29.95 in 10.0 mi North 12.7 mph - N/A   Scattered Clouds
1:54 PM 82.0 °F 85.9 °F 70.0 °F 67% 29.93 in 10.0 mi North 13.8 mph - N/A   Scattered Clouds
2:54 PM 81.0 °F 84.9 °F 71.1 °F 72% 29.93 in 10.0 mi North 12.7 mph - N/A   Scattered Clouds
3:54 PM 80.1 °F 83.2 °F 70.0 °F 71% 29.93 in 10.0 mi NNE 13.8 mph - N/A   Scattered Clouds
4:54 PM 78.1 °F - 70.0 °F 76% 29.95 in 10.0 mi NNE 12.7 mph - N/A   Scattered Clouds
5:54 PM 77.0 °F - 70.0 °F 79% 29.96 in 10.0 mi NNE 12.7 mph - N/A   Scattered Clouds
6:54 PM 75.9 °F - 70.0 °F 82% 29.98 in 10.0 mi NNE 10.4 mph - 0.00 in   Scattered Clouds
7:54 PM 75.0 °F - 70.0 °F 84% 30.00 in 10.0 mi ENE 5.8 mph - N/A   Scattered Clouds
8:54 PM 73.0 °F - 68.0 °F 84% 30.01 in 10.0 mi Calm Calm - N/A   Partly Cloudy
9:54 PM 70.0 °F - 66.0 °F 87% 30.02 in 10.0 mi ESE 3.5 mph - N/A   Clear
10:54 PM 73.0 °F - 66.9 °F 81% 30.01 in 10.0 mi North 3.5 mph - N/A   Clear
11:54 PM 68.0 °F - 64.9 °F 90% 30.00 in 10.0 mi Calm Calm - N/A   Clear